This is the latest recevied weather packets stored in our database for station/object WA1TYB-13. If no packets are shown the sender has not sent any weather packets the latest 10 day(s).
| Time | Temp. | Humidity | Pressure | Rain* | Wind** | Luminosity | Snow |
|---|---|---|---|---|---|---|---|
| 1777687161 | 17.78° C | 34% | 1017.5 hPa | 0 mm | - | 27 W/m² | - |
| 1777686860 | 18.33° C | 32% | 1017.5 hPa | 0 mm | - | 31 W/m² | - |
| 1777686556 | 18.33° C | 31% | 1017.5 hPa | 0 mm | - | 34 W/m² | - |
| 1777686253 | 18.89° C | 30% | 1017.7 hPa | 0 mm | - | 37 W/m² | - |
| 1777685949 | 18.89° C | 30% | 1017.7 hPa | 0 mm | - | 42 W/m² | - |
| 1777685644 | 18.89° C | 30% | 1017.8 hPa | 0 mm | - | 45 W/m² | - |
| 1777685341 | 19.44° C | 29% | 1017.9 hPa | 0 mm | - | 58 W/m² | - |
| 1777685039 | 19.44° C | 28% | 1017.8 hPa | 0 mm | - | 62 W/m² | - |
| 1777684736 | 20° C | 26% | 1017.8 hPa | 0 mm | - | 63 W/m² | - |
| 1777684432 | 20° C | 24% | 1017.8 hPa | 0 mm | - | 84 W/m² | - |
| 1777684129 | 20° C | 25% | 1017.9 hPa | 0 mm | - | 106 W/m² | - |
| 1777683826 | 20.56° C | 26% | 1017.7 hPa | 0 mm | - | 114 W/m² | - |
| 1777683523 | 20.56° C | 24% | 1017.6 hPa | 0 mm | - | 123 W/m² | - |
| 1777683221 | 20.56° C | 24% | 1017.9 hPa | 0 mm | - | 144 W/m² | - |
| 1777682918 | 20.56° C | 24% | 1018 hPa | 0 mm | - | 151 W/m² | - |
| 1777682614 | 20.56° C | 23% | 1017.9 hPa | 0 mm | - | 51 W/m² | - |
| 1777682312 | 20.56° C | 23% | 1017.8 hPa | 0 mm | - | 203 W/m² | - |
| 1777682009 | 20.56° C | 22% | 1018.1 hPa | 0 mm | - | 205 W/m² | - |
| 1777681705 | 20.56° C | 20% | 1018 hPa | 0 mm | - | 211 W/m² | - |
| 1777681402 | 21.11° C | 22% | 1018 hPa | 0 mm | - | 229 W/m² | - |
| 1777681099 | 21.11° C | 21% | 1018.2 hPa | 0 mm | - | 254 W/m² | - |
| 1777680797 | 20.56° C | 20% | 1018 hPa | 0 mm | - | 273 W/m² | - |
| 1777680495 | 21.11° C | 20% | 1018 hPa | 0 mm | - | 248 W/m² | - |
| 1777680193 | 21.11° C | 22% | 1018.1 hPa | 0 mm | - | 240 W/m² | - |
| 1777679888 | 21.11° C | 19% | 1018.1 hPa | 0 mm | - | 281 W/m² | - |
* Rain latest hour (hover to see other rain measurements)
** Current wind speed in m/s (hover to see current wind gust speed)